This is the latest recevied weather packets stored in our database for station/object OE5ERN-10. If no packets are shown the sender has not sent any weather packets the latest 10 day(s).
| Time | Temp. | Humidity | Pressure | Rain* | Wind** | Luminosity | Snow |
|---|---|---|---|---|---|---|---|
| 1777660840 | 13.89° C | 47% | 1029.9 hPa | 0 mm | - | - | - |
| 1777659940 | 14.44° C | 46% | 1029.7 hPa | 0 mm | - | - | - |
| 1777659040 | 16.11° C | 41% | 1029.6 hPa | 0 mm | - | - | - |
| 1777658140 | 17.78° C | 38% | 1029.4 hPa | 0 mm | - | - | - |
| 1777657240 | 20.56° C | 34% | 1029.2 hPa | 0 mm | - | - | - |
| 1777656340 | 21.67° C | 32% | 1029 hPa | 0 mm | - | - | - |
| 1777655440 | 23.33° C | 30% | 1028.9 hPa | 0 mm | - | - | - |
| 1777654540 | 22.78° C | 29% | 1029 hPa | 0 mm | - | - | - |
| 1777653640 | 21.67° C | 30% | 1029.1 hPa | 0 mm | - | - | - |
| 1777652740 | 22.78° C | 30% | 1029.1 hPa | 0 mm | - | - | - |
| 1777651840 | 21.67° C | 30% | 1029.2 hPa | 0 mm | - | - | - |
| 1777650941 | 21.67° C | 31% | 1029.3 hPa | 0 mm | - | - | - |
| 1777650040 | 22.22° C | 29% | 1029.4 hPa | 0 mm | - | - | - |
| 1777649141 | 22.78° C | 29% | 1029.6 hPa | 0 mm | - | - | - |
| 1777648241 | 22.78° C | 29% | 1029.7 hPa | 0 mm | - | - | - |
| 1777647341 | 22.78° C | 29% | 1029.8 hPa | 0 mm | - | - | - |
| 1777646441 | 22.22° C | 30% | 1029.9 hPa | 0 mm | - | - | - |
| 1777645541 | 22.22° C | 29% | 1030 hPa | 0 mm | - | - | - |
| 1777644641 | 21.67° C | 30% | 1030.3 hPa | 0 mm | - | - | - |
| 1777643741 | 22.22° C | 29% | 1030.4 hPa | 0 mm | - | - | - |
| 1777642841 | 22.22° C | 29% | 1030.5 hPa | 0 mm | - | - | - |
| 1777641941 | 22.22° C | 29% | 1030.5 hPa | 0 mm | - | - | - |
| 1777641041 | 21.67° C | 30% | 1030.8 hPa | 0 mm | - | - | - |
| 1777640141 | 21.11° C | 30% | 1031 hPa | 0 mm | - | - | - |
| 1777639241 | 21.11° C | 29% | 1031 hPa | 0 mm | - | - | - |
* Rain latest hour (hover to see other rain measurements)
** Current wind speed in m/s (hover to see current wind gust speed)